Regional Weather Roundup
Issued by NWS Upton, NY

Current Version | Previous Version | Text Only | Print | Product List | Glossary Off
Versions: 1 2 3 4 5 6 7 8 9 10 11 12 13 14 15 16 17 18 19 20 21 22 23 24 25 26 27 28 29 30 31 32 33 34 35 36 37 38 39 40 41 42 43 44 45 46 47 48 49 50
000 ASUS41 KOKX 231505 RWROKX REGIONAL WEATHER ROUNDUP NATIONAL WEATHER SERVICE NEW YORK NY 1100 AM EDT TUE SEP 23 2014 NOTE: "FAIR" INDICATES FEW OR NO CLOUDS BELOW 12,000 FEET WITH NO SIGNIFICANT WEATHER AND/OR OBSTRUCTIONS TO VISIBILITY. NYZ071-072-176-178-NJZ106-104-231600- NEW YORK CITY METRO AREA CITY SKY/WX TMP DP RH WIND PRES REMARKS CENTRAL PARK SUNNY 60 41 49 VRB5 30.36R LAGUARDIA APRT MOSUNNY 61 41 47 N3 30.33R KENNEDY INTL MOSUNNY 63 41 44 CALM 30.34R NEWARK/LIBERTY MOSUNNY 61 39 44 CALM 30.33S BRNX BOT. GARD N/A 61 41 48 W5 30.35S TETERBORO SUNNY 63 41 44 VRB5 30.33R $$ NYZ177-179-078>081-231600- LONG ISLAND NEW YORK CITY SKY/WX TMP DP RH WIND PRES REMARKS FARMINGDALE SUNNY 62 43 49 VRB3 30.33R ISLIP MOSUNNY 62 43 49 N10 30.31R SHIRLEY SUNNY 62 43 49 N9 30.32S WESTHAMPTON SUNNY 64 42 44 N8 30.32S MONTAUK POINT N/A 60 40 47 NW6 30.32S $$ NYZ052-065-067-231600- HUDSON VALLEY CITY SKY/WX TMP DP RH WIND PRES REMARKS WHITE PLAINS SUNNY 59 42 53 VRB3 30.32S NEWBURGH SUNNY 57 45 62 W7 30.33S MONTGOMERY SUNNY 60 44 55 SW5 30.31F POUGHKEEPSIE SUNNY 59 42 53 VRB3 30.31F ALBANY MOSUNNY 59 45 59 W6 30.31S $$ NJZ001-105-106-008-010-013-015-019>022-104-231600- NEW JERSEY CITY SKY/WX TMP DP RH WIND PRES REMARKS NEWARK/LIBERTY MOSUNNY 61 39 44 CALM 30.33S TETERBORO SUNNY 63 41 44 VRB5 30.33R CALDWELL SUNNY 59 39 47 CALM 30.34S MORRISTOWN SUNNY 61 43 51 SE5 30.34S SOMERVILLE SUNNY 61 41 47 CALM 30.33R LINDEN FAIR 65 43 45 CALM 30.35S SUSSEX SUNNY 61 44 53 NW5 30.33S ANDOVER N/A 60 44 55 NE5 30.34R TRENTON SUNNY 60 41 49 VRB3 30.34R MILLVILLE SUNNY 61 42 49 NE7 30.34R ATLANTIC CITY SUNNY 61 47 59 CALM 30.33S WRIGHTSTOWN SUNNY 62 46 55 VRB1 30.32R TOMS RIVER SUNNY 61 45 55 NE3 30.33S BELMAR SUNNY 63 45 51 N6 30.33R $$ PAZ047>061-062-071-231600- EASTERN PENNSYLVANIA CITY SKY/WX TMP DP RH WIND PRES REMARKS PHILADELPHIA MOSUNNY 62 42 47 E9 30.34S ALLENTOWN SUNNY 59 42 53 VRB3 30.35R SCRANTON SUNNY 56 42 59 CALM 30.35S $$ CTZ002-004>006-009-010-012-RIZ004-006-007-MAZ004-011-015-231600- SOUTHERN NEW ENGLAND IN CT CITY SKY/WX TMP DP RH WIND PRES REMARKS BRADLEY INTL MOSUNNY 62 40 44 VRB6 30.29S HARTFORD SUNNY 60 41 49 VRB5 30.30S DANBURY SUNNY 59 44 57 VRB6 30.33S WTRBRY/OXFORD MOSUNNY 55 43 62 NW7 30.31 BRIDGEPORT SUNNY 63 45 51 VRB7 30.31S MERIDEN N/A 61 42 49 NW3 30.30F NEW HAVEN MOSUNNY 61 44 53 VRB5 30.32R CHESTER FAIR 59 43 55 CALM 30.31S GROTON SUNNY 58 41 53 S6 30.30S WILLIMANTIC SUNNY 59 41 51 CALM 30.30S IN RI CITY SKY/WX TMP DP RH WIND PRES REMARKS PROVIDENCE MOSUNNY 61 40 45 VRB3 30.31R BLOCK ISLAND SUNNY 61 39 44 NW7 30.31R WESTERLY SUNNY 61 39 44 N5 30.31R IN MA CITY SKY/WX TMP DP RH WIND PRES REMARKS BOSTON MOSUNNY 60 39 45 W6 30.28R WORCESTER SUNNY 54 40 59 SW9 30.28R WESTFIELD SUNNY 62 40 44 W6 30.29R PROVINCETOWN SUNNY 59 39 47 NW10 30.29R NANTUCKET SUNNY 60 43 53 N9 30.28R $$ ANZ330-335-338-340-345-350-353-355-231600- COASTAL MARINE OBSERVATIONS STATION/POSITION TIME SKY/WX TEMP WIND PRES VSBY WAVE AIR SEA DIR/SP/G HT/PER (UTC) (F) (DEG/KT/KT) (MB) (MI) (FT/S) NY HARB ENTRANCE 1500 58 69 30/ 4/ 8 1027.5 2/ 8 4S FIRE IS 1500 69 N/A 3/ 8 20S FIRE ISLAND 1500 58 68 30/ 10/ 14 1026.9 3/ 8 23SW MTP 1500 N/A 3/ 8 HUDSON CANYON 1500 60 70 10/ 10/ 14 1025.9 4/ 5 EXECUTION ROCKS 1500 59 70 150/ 2/ 4 N/A WESTERN LI SOUND 1500 58 200/ 2/ 4 N/A 0 CENTRAL LI SOUND 1400 56 69 330/ 6/ 8 N/A 1/ 3 EASTERN LI SOUND 1400 64 68 280/ 2/ 6 N/A ROBBINS REEF 1400 57 310/ 2/ 4 1025.9 $$ >>>>>>>>>>>>>>>>>>>>>>>>>>>> KEY <<<<<<<<<<<<<<<<<<<<<<<<<<< > < > SKY/WX - SKY CONDITION/PRESENT WEATHER < > TMP - TEMPERATURE IN FAHRENHEIT < > DP - DEWPOINT IN FAHRENHEIT < > RH - RELATIVE HUMIDITY IN PERCENT < > WIND - DIRECTION AND SPEED IN MPH < > PRES - MEAN SEA LEVEL PRESSURE IN INCHES OF HG < > WCI - WIND CHILL INDEX < > VSB - VISIBILITY IN MILES < > HX - HEAT INDEX < > TC - TEMPERATURE IN CELSIUS < > VRB - VARIABLE WIND DIRECTION < > < >>>>>>>>>>>>>>>>>>>>>>>>>>>> KEY <<<<<<<<<<<<<<<<<<<<<<<<<<<

USA.gov is the U.S. government's official web portal to all federal, state and local government web resources and services.